Albuquerque Double Eagle, NM

4:53 PM MDT on April 28, 2017 (GMT -0600)
Double Eagle Ii

Weather History for KAEG - August, 2014

Change the Weather History Date:

Saturday, August 23, 2014

  Actual Average (KABQ) Record (KABQ)
Temperature  
Mean Temperature 66 °F -  
Max Temperature 80 °F 86 °F 97 °F (1973)
Min Temperature 51 °F 61 °F 54 °F (1990)
Growing Degree Days 16 (Base 50)    
Moisture  
Dew Point 52 °F    
Average Humidity 76    
Maximum Humidity 100    
Minimum Humidity 30    
Precipitation  
Precipitation 0.00 in - - ()
Sea Level Pressure  
Sea Level Pressure 30.16 in    
Wind  
Wind Speed 3 mph (SW)    
Max Wind Speed 16 mph    
Max Gust Speed 23 mph    
Visibility 10 miles    
Events      
Averages and records for this station are not official NWS values.
T = Trace of Precipitation, MM = Missing Value Source: NWS Daily Summary

Daily Weather History Graph

Daily Weather History Graph

Search for Another Location

Airport or City:

Trip Planner

Search our weather history database for the weather conditions in past years. The results will help you decide how hot, cold, wet, or windy it might be!

Date:

Astronomy

Aug. 23, 2014 Rise Set
Actual Time 6:33 AM MDT 7:45 PM MDT
Civil Twilight 6:06 AM MDT 8:12 PM MDT
Nautical Twilight 5:35 AM MDT 8:43 PM MDT
Astronomical Twilight 5:02 AM MDT 9:16 PM MDT
Moon 4:53 AM MDT (8/23) 6:31 PM MDT (8/23)
Length of Visible Light 14h 05m
Length of Day
13h 12m
Waning Crescent, 3% of the Moon is Illuminated
Aug 23
Waning Crescent
Aug 25
New
Sep 2
First Quarter
Sep 8
Full
Sep 15
Last Quarter

Hourly Weather History & Observations

Time (MDT) Temp. Dew Point Humidity Pressure Visibility Wind Dir Wind Speed Gust Speed Precip Events Conditions
12:15 AM 55.4 °F 53.6 °F 94% 30.20 in 10.0 mi Calm Calm - N/A   Clear
12:35 AM 55.0 °F 53.6 °F 95% 30.20 in 10.0 mi Calm Calm - N/A   Clear
12:55 AM 55.4 °F 53.2 °F 92% 30.19 in 10.0 mi Calm Calm - N/A   Clear
1:15 AM 54.9 °F 53.4 °F 95% 30.19 in 10.0 mi Calm Calm - N/A   Clear
1:35 AM 54.1 °F 52.7 °F 95% 30.19 in 10.0 mi Calm Calm - N/A   Clear
1:55 AM 54.7 °F 53.1 °F 94% 30.19 in 10.0 mi Calm Calm - N/A   Clear
2:15 AM 54.1 °F 52.7 °F 95% 30.19 in 10.0 mi SE 3.5 mph - N/A   Clear
2:35 AM 54.0 °F 52.0 °F 93% 30.19 in 10.0 mi Calm Calm - N/A   Clear
3:15 AM 53.6 °F 52.3 °F 95% 30.19 in 10.0 mi Calm Calm - N/A   Clear
3:35 AM 52.9 °F 51.8 °F 96% 30.19 in 10.0 mi Calm Calm - N/A   Scattered Clouds
3:55 AM 52.9 °F 51.8 °F 96% 30.19 in 10.0 mi Calm Calm - N/A   Clear
4:15 AM 52.7 °F 51.4 °F 95% 30.19 in 10.0 mi Calm Calm - N/A   Clear
4:35 AM 52.7 °F 51.4 °F 95% 30.19 in 10.0 mi Calm Calm - N/A   Clear
5:15 AM 52.5 °F 51.3 °F 95% 30.19 in 10.0 mi Calm Calm - N/A   Clear
5:35 AM 52.0 °F 50.9 °F 96% 30.19 in 10.0 mi Calm Calm - N/A   Clear
6:49 AM 51.8 °F 51.8 °F 100% 30.20 in 10.0 mi Calm Calm - N/A   Scattered Clouds
7:48 AM 57.2 °F 55.4 °F 94% 30.21 in 10.0 mi Calm Calm - N/A   Scattered Clouds
8:50 AM 60.8 °F 57.2 °F 88% 30.21 in 10.0 mi Variable 4.6 mph - N/A   Scattered Clouds
9:50 AM 64.4 °F 55.4 °F 73% 30.21 in 10.0 mi Variable 3.5 mph - N/A   Mostly Cloudy
12:48 PM 71.6 °F 53.6 °F 53% 30.18 in 10.0 mi South 5.8 mph - N/A   Scattered Clouds
1:46 PM 73.4 °F 51.8 °F 47% 30.16 in 10.0 mi SW 5.8 mph - N/A   Scattered Clouds
2:46 PM 77.0 °F 51.8 °F 41% 30.14 in 10.0 mi SSW 10.4 mph - N/A   Mostly Cloudy
3:46 PM 78.8 °F 46.4 °F 32% 30.11 in 10.0 mi SW 16.1 mph 23.0 mph N/A   Scattered Clouds
4:46 PM 80.6 °F 46.4 °F 30% 30.09 in 10.0 mi SW 11.5 mph 23.0 mph N/A   Scattered Clouds
5:50 PM 80.6 °F 46.4 °F 30% 30.08 in 10.0 mi WSW 13.8 mph 17.3 mph N/A   Scattered Clouds
6:50 PM 78.8 °F 46.4 °F 32% 30.08 in 10.0 mi SSW 9.2 mph - N/A   Partly Cloudy
7:46 PM 71.6 °F 50.0 °F 46% 30.09 in 10.0 mi SSE 8.1 mph - N/A   Partly Cloudy
8:50 PM 69.8 °F 53.6 °F 56% 30.11 in 10.0 mi SSW 6.9 mph - N/A   Partly Cloudy
10:15 PM 65.5 °F 55.8 °F 71% 30.12 in 10.0 mi SSW 8.1 mph - N/A   Scattered Clouds
10:35 PM 64.6 °F 56.5 °F 75% 30.12 in 10.0 mi SSW 6.9 mph - N/A   Mostly Cloudy
10:55 PM 64.9 °F 56.3 °F 74% 30.12 in 10.0 mi WSW 8.1 mph - N/A   Scattered Clouds
11:15 PM 66.7 °F 54.5 °F 65% 30.12 in 10.0 mi WSW 9.2 mph - N/A   Scattered Clouds
11:35 PM 65.1 °F 54.5 °F 68% 30.12 in 10.0 mi WSW 9.2 mph - N/A   Scattered Clouds
11:55 PM 63.7 °F 54.9 °F 73% 30.12 in 10.0 mi WSW 6.9 mph - N/A   Clear